FENGYUN 1C DEB

Satellite information

Favourite Embed

Satellite Type and Status

DEBRISIN ORBIT

Key statistics

Satellite FENGYUN 1C DEB at a glance.

Uptime

9609

Days in orbit

Revolutions

≈ 14.2

Per day

Orbit

SSO

Sun Synchronous Orbit

Inclination

98.7

Latest

Satellite identification and parameters

Extended collection of information and parameters for FENGYUN 1C DEB.

Object identification

Identified? True

Debris? True

Object name: FENGYUN 1C DEB

International designator: 1999-025DWM

Object number (NORAD): 36260

Object ID (CCSDS): 36260

Country: PEOPLES REPUBLIC OF CHINA (PRC)

Current information (Y/N): Y

RCS size: SMALL

Orbital parameters

Period: 101.748 minutes

Inclination: 98.6612 deg

SMA: 7219.563 km

Apoapsis: 852.529 km

Periapsis: 830.327 km

RAAN: 240.6699 deg

Eccentricy: 0.00153757

Argument of periapsis: 205.9586 deg

Mean anomaly: 154.0818 deg

Mean motion: 14.15260536 rev/day

Mean motion (dot): 0.00000195 rev/day2

B* drag term: 0.00012208542 1/REarth

Two-line elements (TLE)

Creation date: Aug. 24, 2025, 2:08 a.m.

Reference frame: TEME

Reference center: EARTH

Epoch: Aug. 23, 2025, 7:14 a.m. UTC

TLE line 0: 0 FENGYUN 1C DEB

TLE line 1: 1 36260U 99025DWM 25235.30149588 .00000195 00000-0 12209-3 0 9999

TLE line 2: 2 36260 98.6612 240.6699 0015376 205.9586 154.0818 14.15260536862325

Live tracking on map

Real-time ground track for satellite FENGYUN 1C DEB.

In-orbit conjunctions

A list of the most updated potential collisions computed for object FENGYUN 1C DEB.

Target Orbit TCA Probability of collision Miss distance Type
CZ-6A DEB LEO 2025-08-19 19:41:18 0.0001352843 299.0 (m) DEBRIS
CZ-4 DEB SSO 2025-06-25 15:20:46 0.0004059259 148.0 (m) DEBRIS
CZ-6A DEB LEO 2024-12-06 01:13:07 0.0004172363 679.0 (m) DEBRIS
METEOR 1-5 DEB LEO 2024-11-10 07:41:12 0.0002721393 841.0 (m) DEBRIS

Associated space launch

Chinese polar orbiting meteorological satellite

FENGYUN 1C DEB was lifted into orbit during the mission ‘Long March 4B | Feng Yun 1C’, on board a Long March 4B space rocket.

The launch took place on May 10, 1999, 1:33 a.m. from Launch Complex 7.

For more information about the launch, click the button.

Launch to space Long March 4B | Feng Yun 1C
Long March 4B | Feng Yun 1C

Agency: N/A

Status: Launch Successful

Launch date: May 10, 1999, 1:33 a.m. UTC

Rocket: Long March 4B

Launch pad: Launch Complex 7

Location: Taiyuan Satellite Launch Center, People's Republic of China

...

Latest news about this satellite

There are no fresh news available about this satellite. Check back as we update our databases every day.


Newsletter sign-up

Weekly statistics, charts and insights to help you stay on top of the space industry.